Location: Tel Aviv-Yafo
(32.0853°N, 34.7818°E)
Time: 14:08:18
(UTC+02:00)

BlueWalker 3 - Visible Passes

Search period start: 21 January 2026 00:00
Search period end: 31 January 2026 00:00
Orbit: 451 x 463 km, 53.2° (Epoch: 20 January)

Date Brightness Start Highest point End Pass type
(mag) Time Alt. Az. Time Alt. Az. Time Alt. Az.
21 Jan 2.2 17:45:06 10° SW 17:48:37 56° NW 17:52:07 10° NE visible
23 Jan 4.4 18:13:57 10° WNW 18:15:32 12° NNW 18:17:09 10° N visible
24 Jan 4.2 17:37:41 10° WNW 17:39:56 16° NW 17:42:12 10° N visible
